www.pogodaiklimat.ru

Погода и климат >> Архив погоды >> Россия >> Ханты-Мансийский АО >> Леуши


ПОГОДА в Леушах

  • Прогноз погоды в Леушах
  • Монитор погоды в Леушах
  • Климат города

АРХИВ ПОГОДЫ в Леушах

Время (UTC), дата Ветер
(напр.,м/с)
 
Видим.   Явления Облачность Т
(С)
Тd
(С)
f
(%)
Тe
(С)
Тes
(С)
Комфортность P
(гПа)
Po
(гПа)
Тmin
(С)
Tmax
(С)
R
(мм)
R24
(мм)
S
(см)
09 10.12 СЗ 2 4000 м слабый снег 10/0 300 м
[As op]
-12.3 -13.9 88 -17 -17 1016.1 1006.8
12 10.12 СЗ 3 20 км {снег} 10/10 600 м
[Sc]
-12.7 -14.5 86 -19 -19 1018.2 1008.9
15 10.12 СЗ 3 20 км 10/10 600 м
[Sc]
-12.8 -14.8 85 -19 -19 1019.7 1010.4 -12.1 0.4
18 10.12 С 3 4000 м слабый снег 10/10 600 м
[Sc]
-14.4 -16.3 85 -21 -21 1021.2 1011.8
21 10.12 С 3 20 км {снег} 10/10 600 м
[Sc]
-14.5 -16.4 85 -21 -21 1022.9 1013.5
00 11.12 С 4 20 км {снег} 10/0
[Ac As]
-13.3 -15.2 86 -21 -21 1024.0 1014.6
03 11.12 СЗ 3 20 км {снег} 10/0
[Ac As]
-15.7 -17.5 86 -22 -22 1026.1 1016.6 -15.7 0.2 7
06 11.12 С 3 50 км 10/0
[Ac As]
-13.7 -15.5 86 -20 -20 1027.8 1018.4 -15.7
09 11.12 С 3 4000 м слабый снег 10/0 300 м
[As op]
-12.0 -14.1 84 -18 -18 1029.3 1019.9
12 11.12 СЗ 3 20 км {снег} 10/10 600 м
[Sc]
-12.7 -14.9 84 -19 -19 1030.4 1021.0
15 11.12 СЗ 2 20 км 10/10 600 м
[Sc]
-13.8 -15.8 85 -19 -19 1032.2 1022.7 -12.0 0.5
18 11.12 СЗ 2 4000 м слабый снег 10/0 300 м
[As op]
-13.5 -15.5 85 -18 -18 1033.1 1023.6
21 11.12 З 1 н/о н/о -13.3 -15.2 86 -16 -16 1033.2 1023.7
00 12.12 штиль 0 4000 м слабый снег 10/0 300 м
[As op]
-13.5 -15.2 87 -14 -14 1033.8 1024.3
03 12.12 З 1 4000 м слабый снег 10/0 300 м
[As op]
-13.6 -15.3 87 -16 -16 1034.7 1025.2 -13.8 0.4 9
06 12.12 штиль 0 50 км в посл. час снег 8/1 600 м
[Sc Ci fib]
-14.4 -16.3 85 -14 -14 1035.7 1026.2 -14.5
09 12.12 штиль 0 50 км 10/1 600 м
[Sc Ci fib]
-14.1 -16.1 85 -14 -14 1035.7 1026.2
12 12.12 штиль 0 20 км 10/3 600 м
[Sc Ac lent Ci fib]
-16.6 -18.2 87 -17 -17 1036.5 1026.9
15 12.12 Ю 1 20 км 10/4 600 м
[Sc Ci fib]
-15.1 -16.8 87 -18 -18 1037.1 1027.6 -13.2 0.0
18 12.12 Ю 1 20 км ясно -16.6 -18.4 86 -19 -19 1037.5 1027.9
21 12.12 Ю 1 20 км ясно -17.8 -19.8 84 -21 -21 1037.8 1028.1
00 13.12 Ю 1 20 км ясно -19.0 -21.1 83 -22 -22 1037.6 1027.9
03 13.12 Ю 1 20 км [диам. изморози 1 мм] ясно -19.5 -21.7 83 -22 -22 1038.0 1028.3 -19.6 8
06 13.12 Ю 2 50 км ясно -18.4 -20.5 83 -24 -24 1038.1 1028.4 -19.9
09 13.12 Ю 1 50 км [диам. изморози 1 мм] 3/0
[Ac lent]
-16.0 -17.9 85 -19 -18 1037.9 1028.3
12 13.12 Ю 2 20 км [диам. изморози 1 мм] 3/0
[Ac lent]
-15.7 -17.6 85 -21 -21 1037.5 1027.9
15 13.12 Ю 2 20 км [диам. изморози 1 мм] ясно -15.6 -17.5 85 -21 -21 1037.0 1027.4 -15.4
18 13.12 Ю 2 20 км [диам. изморози 1 мм] ясно -15.2 -17.1 85 -20 -20 1035.8 1026.3
21 13.12 Ю 2 20 км ясно -15.4 -17.3 85 -20 -20 1035.0 1025.4
00 14.12 Ю 2 20 км [диам. изморози 1 мм] ясно -14.8 -16.7 85 -20 -20 1033.8 1024.3
03 14.12 Ю 2 20 км [диам. изморози 1 мм] 4/0
[Ci fib]
-13.9 -15.8 86 -19 -19 1032.4 1022.9 -16.0 7
06 14.12 Ю 4
{10}
50 км [диам. изморози 1 мм] 10/10 600 м
[Sc]
-11.9 -13.9 85 -19 -19 1030.7 1021.4
09 14.12 Ю 3
{11}
50 км {метель} [диам. изморози 1 мм] 10/10 600 м
[Sc]
-9.3 -11.8 82 -15 -15 1029.6 1020.4
12 14.12 Ю 3
{11}
20 км 10/10 600 м
[Sc]
-8.0 -10.8 80 -14 -14 1029.9 1020.6
15 14.12 Ю 2 4000 м слабый снег 10/10 600 м
[Sc]
-7.2 -9.4 84 -12 -12 1030.2 1021.0 -7.2 0.3
18 14.12 Ю 2 20 км {снег} 10/10 600 м
[Sc]
-6.4 -9.4 79 -11 -11 1030.2 1021.0
21 14.12 Ю 2 20 км 10/10 600 м
[Sc]
-5.6 -8.2 82 -10 -10 1029.7 1020.5
00 15.12 Ю 1 20 км 10/10 600 м
[Sc]
-5.1 -7.1 86 -7 -7 1029.1 1020.0
03 15.12 Ю 1 20 км 10/10 600 м
[Sc]
-3.6 -5.3 88 -6 -6 1029.4 1020.3 -7.2 0.2 7
06 15.12 Ю 2 50 км 10/10 600 м
[Sc]
-2.6 -4.5 87 -7 -7 1030.0 1021.0
09 15.12 Ю 2 50 км 10/8 300 м
[Frnb Ac cast Ci fib]
-0.7 -3.4 82 -4 -4 1030.4 1021.4
12 15.12 Ю 1 20 км 10/10 600 м
[Sc]
-1.4 -4.7 78 -3 -3 1030.8 1021.8
15 15.12 Ю 2 20 км 10/10 600 м
[Sc]
-3.2 -8.3 68 -7 -7 1030.9 1021.8 -0.4
18 15.12 Ю 2 20 км 10/3 600 м
[Sc Cs]
-6.0 -10.0 73 -10 -10 1030.6 1021.4
21 15.12 Ю 2 20 км 10/10 600 м
[Sc]
-6.1 -10.3 72 -10 -10 1030.4 1021.2
00 16.12 Ю 2 20 км 8/8 600 м
[Sc Ac lent Ci fib]
-6.0 -10.6 70 -10 -10 1030.8 1021.6
03 16.12 ЮЗ 1 20 км 10/9 600 м
[Sc Ci fib]
-5.6 -10.5 68 -8 -8 1031.7 1022.6 -6.8 7
06 16.12 Ю 2 50 км 10/0
[Ac trans Cc]
-4.8 -10.0 67 -9 -9 1032.1 1022.9
09 16.12 ЮЗ 1 50 км 10/0
[Ac lent Cc]
-4.3 -9.8 65 -6 -6 1032.7 1023.6
12 16.12 Ю 1 20 км 10/0
[Cs]
-5.3 -11.1 64 -7 -7 1034.1 1024.9
15 16.12 Ю 1 20 км 10/0
[Cs]
-6.1 -12.1 62 -8 -8 1034.6 1025.4 -4.3
18 16.12 Ю 1 20 км 10/0
[Ci fib]
-7.1 -12.2 67 -9 -9 1035.0 1025.7
21 16.12 Ю 1 20 км 4/0
[Ci fib]
-7.8 -12.9 67 -10 -10 1034.9 1025.6
00 17.12 Ю 1 20 км 4/0
[Ci fib]
-7.8 -14.5 59 -10 -10 1035.0 1025.8
03 17.12 Ю 2 20 км 4/0
[Ci fib]
-7.5 -16.2 50 -12 -12 1034.3 1025.0 -8.2 6
06 17.12 Ю 1 50 км 4/0
[Ci fib]
-8.7 -16.8 52 -11 -11 1035.0 1025.7 -9.0

 

Местоположение метеостанции Леуши (Ханты-Мансийский АО, Россия): широта 59.63 долгота 65.72 высота над уровнем моря 72 м.

В архиве по умолчанию представлена погода в Леушах за последнюю неделю. Архивные данные за месяц целиком и за предыдущие месяцы, начиная с января 2011 года, Вы можете получить, выбрав интересующий диапазон дат из раскрывающегося списка и нажав кнопку "Ввод!".

Внимание! Время в таблицах - всемирное. Для получения местного времени необходимо прибавить поправку, которая в Леушах равна 5 ч.

Смотрите также архив погоды в соседних городах и на ближайших метеорологических станциях:

Погода в Кондинском (Ханты-Мансийский АО, Россия) (96 км)
Погода в Куминской (Ханты-Мансийский АО, Россия) (103 км)
Погода в Шаиме (Ханты-Мансийский АО, Россия) (113 км)
Погода в Таборах (Свердловская область, Россия) (141 км)
Погода в Тавде (Свердловская область, Россия) (175 км)
Погода в Увате (Тюменская область, Россия) (188 км)
Погода в Гари (Свердловская область, Россия) (192 км)
Погода в Алтае (Ханты-Мансийский АО, Россия) (197 км)
Погода в Демьянском (Тюменская область, Россия) (200 км)
Погода в Туринске (Свердловская область, Россия) (211 км)

Пояснения к столбцам:

Ветер - указаны скорость ветра в м/с - средняя за 10 мин, порывы в срок и между сроками (в фигурных скобках) и направление, откуда дует ветер: С - северный, СВ - северо-восточный, В - восточный, ЮВ - юго-восточный, Ю - южный, ЮЗ - юго-западный, З - западный, СЗ - северо-западный.
Видимость - горизонтальная дальность видимости в метрах или километрах. При видимости от 1 до 10 км при отсутствии осадков обычно наблюдается дымка, при ухудшении видимости до 1 км и менее - туман. В сухую погоду видимость может ухудшаться дымом, пылью или мглою.
Явления - указаны атмосферные явления, наблюдавшиеся в срок или в последний час перед сроком; фигурными скобками обозначены явления, наблюдавшиеся между сроками (за 1-3 часа до срока); квадратными скобками обозначены град или гололедные отложения с указанием их диаметра в мм.
Облачность - указаны через наклонную черту общая и нижняя облачность в баллах и высота нижней границы облаков в метрах; квадратными скобками обозначены формы облаков: Ci - перистые, Cs - перисто-слоистые, Cc - перисто-кучевые, Ac - высококучевые, As - высокослоистые, Sc - слоисто-кучевые, Ns - слоисто-дождевые, Cu - кучевые, Cb - кучево-дождевые. Подробнее классификацию облаков см. в Атласе облаков (PDF).
T - Температура воздуха - температура, измеренная на высоте 2 м над землей.
Td - Температура точки росы - температура, при понижении до которой содержащийся в воздухе водяной пар достигнет насыщения.
f - Относительная влажность воздуха - влажноcть воздуха, измеренная на высоте 2 м над землей.
Te - Эффективная температура - температура, которую ощущает одетый по сезону человек в тени. Характеристика душности погоды. При расчете учитывается влияние влажности воздуха и скорости ветра на теплоощущения человека.
Tes - Эффективная температура на солнце - температура, которую ощущает человек, с поправкой на солнечный нагрев. Характеристика знойности погоды. Зависит от высоты солнца над горизонтом, облачности и скорости ветра. Ночью, в пасмурную погоду, а также при ветре 12 м/с и более поправка равна нулю.
P - Атмосферное давление - приведенное к уровню моря атмосферное давление.
Po - Атмосферное давление - измеренное на уровне метеостанции атмосферное давление.
Tmin - Минимальная температура - минимум температуры воздуха на высоте 2 м над землей.
Tmax - Максимальная температура - максимум температуры воздуха на высоте 2 м над землей.
R - Количество осадков - Количество выпавших осадков за период времени, мм. При наведении курсора мыши на число - период времени, за который выпало указанное количество осадков.
R24 - Количество осадков - Количество выпавших осадков за 24 часа, мм.
S - Снежный покров - Высота снежного покрова, см. При наведении курсора мыши на число - состояние снежного покрова и степень покрытия местности в баллах.